Retour au catalogue

STARLINK-31021

ActifCommunicationsVLEO
NORAD 58518·PAYLOAD·🇺🇸 United States

Lancé Dec 7, 2023 depuis Cape Canaveral Space Force Station

Loading…

Prochains Passages (prochaines 24 heures)

TLE

FraisSource: CelesTrak SupGP

Époque: Sep 14, 2026, 21:03 UTC

1 58518C 23191L   26257.87756944 -.00059463  00000+0 -21543-2 0  2577
2 58518  42.9996 115.1939 0001446 269.2181  55.0843 15.27599606    17

Suivez STARLINK-31021 en temps réel avec AllMySat

Download on the App Store